www.pogodaiklimat.ru
Время
(UTC), дата
08:29 30.12
08:53 30.12
09:53 30.12
10:53 30.12
11:04 30.12
11:14 30.12
11:34 30.12
11:48 30.12
11:53 30.12
12:13 30.12
12:35 30.12
12:53 30.12
13:53 30.12
14:53 30.12
15:53 30.12
16:53 30.12
17:53 30.12
18:53 30.12
19:53 30.12
20:53 30.12
21:53 30.12
22:53 30.12
23:53 30.12
00:53 30.12
01:53 30.12
02:53 30.12
03:53 30.12
04:53 30.12
05:53 30.12
06:53 30.12
07:53 31.12
08:53 31.12
09:53 31.12
10:53 31.12
11:34 31.12
11:43 31.12
11:53 31.12
12:53 31.12
13:53 31.12
14:53 31.12
15:53 31.12
16:53 31.12
17:53 31.12
18:53 31.12
19:07 31.12
19:53 31.12
20:53 31.12
21:53 31.12
Ветер
(напр.,м/с)
Видим. Явления Облачность Т
(С)
Тd
(С)
f
(%)
Тe
(С)
Тes
(С)
Комфортность P
(гПа)
Po
(гПа)
Тmin
(С)
Tmax
(С)
R
(мм)
R24
(мм)
S
(см)
0 5 км дымка 10/10 240 м +3.3 +2.8 97 +2 +2 975.4
0 8 км дымка 10/10 210 м +3.3 +2.8 97 +2 +2 1024.7 975.7
0 8 км дымка 10/10 180 м +3.9 +2.8 93 +3 +3 1024.6 975.4
С 2 6 км дымка 10/10 120 м +3.9 +2.8 93 0 0 1024.9 975.7 +2.8 +3.9 13.0
СВ 1 2 км дымка 10/10 120 м +3.3 +2.8 97 +1 +1 975.7
СВ 1 800 м туман ?/? +3.3 +2.8 97 +1 +1 975.7
0 3 км дымка 10/10 90 м +3.3 +2.8 97 +2 +2 976.0
СЗ 1 2 км дымка 10/10 90 м +3.0 +3.0 100 0 0 976.3
СЗ 2 2 км дымка 10/10 90 м +3.3 +2.8 97 -1 -1 1025.5 976.3
СЗ 2 800 м туман ?/? +3.3 +2.8 97 -1 -1 976.3
0 400 м туман ?/? +3.3 +3.3 100 +2 +2 976.6
0 400 м туман ?/? +3.3 +3.3 100 +2 +2 1026.0 976.6
З 1 800 м туман ?/? +3.9 +3.3 96 +1 +1 1026.9 977.6
0 3 км дымка 10/10 60 м +3.9 +3.3 96 +3 +3 1027.1 977.9
0 3 км дымка 10/10 90 м +3.9 +3.3 96 +3 +3 1028.0 978.9
0 3 км дымка 10/10 90 м +4.4 +3.9 97 +3 +3 1029.0 979.9 +3.3 +4.4
0 3 км дымка 10/10 150 м +5.0 +3.9 93 +4 +4 1028.8 979.6
0 6 км дымка 10/10 150 м +5.6 +3.9 89 +5 +5 1028.3 979.2
0 10 км дымка 10/10 240 м +6.1 +3.9 86 +5 +5 1028.0 978.9
СЗ 1 13 км 10/10 300 м +7.2 +3.3 76 +6 +6 1027.5 978.3
0 16 км 10/10 300 м +7.2 +3.9 80 +6 +6 1027.8 978.6
0 16 км 10/10 360 м +7.2 +3.9 80 +6 +6 1028.1 978.9 +4.4 +7.2
СЗ 2 16 км 10/10 780 м +7.2 +3.9 80 +5 +5 1028.5 979.2
0 16 км 10/10 750 м +6.7 +4.4 85 +6 +6 1028.7 979.6
0 16 км 10/10 720 м +6.7 +3.9 82 +6 +6 1029.0 979.9
нст 1 16 км 10/10 720 м +6.1 +4.4 89 +4 +4 1029.0 979.9
0 16 км 10/10 720 м +6.1 +4.4 89 +5 +5 1029.0 979.9
0 16 км 10/10 690 м +6.1 +4.4 89 +5 +5 1029.4 980.2 +6.1 +7.2
0 16 км 10/10 660 м +6.1 +4.4 89 +5 +5 1029.3 980.2
0 16 км 10/10 600 м +6.1 +4.4 89 +5 +5 1028.8 979.6
С 2 14 км 10/10 570 м +5.6 +4.4 92 +2 +2 1028.6 979.6
0 16 км 10/10 540 м +5.6 +3.9 89 +5 +5 1028.1 978.9
0 16 км 10/10 570 м +5.6 +3.3 85 +5 +5 1028.5 979.6
С 2 16 км 10/10 540 м +5.6 +3.3 85 +3 +3 1028.3 979.2 +5.6 +6.1
С 1 16 км 10/10 390 м +5.0 +3.3 89 +3 +3 978.6
0 16 км 10/10 390 м +5.0 +3.3 89 +4 +4 978.3
С 1 16 км 10/10 390 м +5.0 +3.3 89 +3 +3 1027.6 978.6
0 16 км 10/10 510 м +5.0 +3.3 89 +4 +4 1027.1 978.3
СЗ 1 16 км 10/10 480 м +5.0 +2.8 86 +3 +3 1026.9 977.9
0 16 км 10/10 510 м +5.0 +2.8 86 +4 +4 1026.5 977.6
С 1 16 км 10/10 480 м +5.0 +2.8 86 +3 +3 1027.6 978.6
С 2 16 км 10/10 450 м +5.6 +2.8 82 +3 +3 1028.1 979.2 +5.0 +5.6
0 16 км 10/10 450 м +6.1 +2.8 79 +5 +5 1027.5 978.6
0 16 км 10/10 450 м +6.1 +2.2 76 +5 +5 1026.5 977.6
0 16 км 10/10 420 м +6.7 +2.8 76 +6 +6 977.3
ЮВ 1 16 км 10/10 450 м +6.1 +2.2 76 +4 +4 1025.3 976.3
З 2 16 км 10/10 450 м +6.7 +2.2 73 +4 +4 1025.0 976.0
0 16 км 10/10 450 м +6.1 +2.2 76 +5 +5 1024.7 976.0
Местоположение метеостанции Rogue Valley International Airport: широта 42.3811 долгота -122.8722 высота над уровнем моря 405 м.
В архиве по умолчанию представлена погода в Медфорде за последние 1-2 суток. Обновление информации о фактической погоде в базе происходит ежечасно! Архивные данные за месяц целиком и за предыдущие месяцы Вы можете получить, выбрав интересующий диапазон дат из раскрывающегося списка и нажав кнопку "Ввод!".
Внимание! Архив погоды МЕТАР в базе сайта по станциям, не включенным в климатический монитор, хранится не более 60 дней. Нет смысла пытаться выбрать более раннюю дату.
*Определитесь, кто Вы:
Внимание! Время в таблицах - всемирное. Для получения местного времени необходимо прибавить поправку, которая равна ч.
Смотрите также архив погоды в соседних городах и на ближайших метеорологических станциях:
Партнеры нашего сайта:      
Пояснения к столбцам:
  • Ветер - указаны скорость ветра в м/с - средняя за 10 мин, порывы в срок и между сроками (в фигурных скобках) и направление, откуда дует ветер: С - северный,
  • СВ - северо-восточный, В - восточный, ЮВ - юго-восточный, Ю - южный, ЮЗ - юго-западный, З - западный, СЗ - северо-западный.
  • Видимость - горизонтальная дальность видимости в метрах или километрах. При видимости от 1 до 10 км при отсутствии осадков обычно наблюдается дымка, при ухудшении видимости до 1 км и менее - туман. В сухую погоду видимость может ухудшаться дымом, пылью или мглою.
  • Явления - указаны атмосферные явления, наблюдавшиеся в срок или в последний час перед сроком; фигурными скобками обозначены явления, наблюдавшиеся между сроками (за 1-3 часа до срока); квадратными скобками обозначены град или гололедные отложения с указанием их диаметра в мм.
  • Облачность - указаны через наклонную черту общая и нижняя облачность в баллах и высота нижней границы облаков в метрах; квадратными скобками обозначены формы облаков: Ci - перистые, Cs - перисто-слоистые, Cc - перисто-кучевые, Ac - высококучевые, As - высокослоистые, Sc - слоисто-кучевые, Ns - слоисто-дождевые, Cu - кучевые, Cb - кучево-дождевые. Подробнее классификацию облаков см. в Атласе облаков (PDF).
  • T - Температура воздуха - температура, измеренная на высоте 2 м над землей.
  • Td - Температура точки росы - температура, при понижении до которой содержащийся в воздухе водяной пар достигнет насыщения.
  • f - Относительная влажность воздуха - влажноcть воздуха, измеренная на высоте 2 м над землей.
  • Te - Эффективная температура - температура, которую ощущает одетый по сезону человек в тени. Характеристика душности погоды. При расчете учитывается влияние влажности воздуха и скорости ветра на теплоощущения человека.
  • Tes - Эффективная температура на солнце - температура, которую ощущает человек, с поправкой на солнечный нагрев. Характеристика знойности погоды. Зависит от высоты солнца над горизонтом, облачности и скорости ветра. Ночью, в пасмурную погоду, а также при ветре 12 м/с и более поправка равна нулю.
  • P - Атмосферное давление - приведенное к уровню моря атмосферное давление.
  • Po - Атмосферное давление - измеренное на уровне метеостанции атмосферное давление.
  • Tmin - Минимальная температура - минимум температуры воздуха на высоте 2 м над землей.
  • Tmax - Максимальная температура - максимум температуры воздуха на высоте 2 м над землей.
  • R - Количество осадков - Количество выпавших осадков за период времени, мм. При наведении курсора мыши на число - период времени, за который выпало указанное количество осадков.
  • R24 - Количество осадков - Количество выпавших осадков за 24 часа, мм.
  • S - Снежный покров - Высота снежного покрова, см. При наведении курсора мыши на число - состояние снежного покрова и степень покрытия местности в баллах.